Temp
44 39 34 39 42 40 40 38 38 41 43 42 42 44 50 52 50 51 53 53 52 51 51 50 50 50 50 51 52 51 50 48 48 47 47 48 49 48 49 50 51 52 52 52
38 34 42 43 44 42 39 37 38 43 44 43 42 43 51 49 50 51 52 51 50 48 47 46 46 47 50 50 51 50 50 48 48 48 47 48 47 47 49 50 51 51 52 52
35 40 44 43 39 39 37 37 38 40 42 41 39 41 46 46 47 47 48 48 47 47 46 44 45 46 47 48 49 50 49 48 48 47 46 46 47 47 48 49 50 50 51 51
39 42 40 38 38 40 34 41 42 41 39 34 38 33 42 44 46 47 48 46 45 45 45 45 45 45 47 47 48 49 48 47 47 46 47 47 47 46 47 48 48 49 50 50
37 37 38 36 38 43 38 40 40 39 37 35 34 34 40 41 46 47 47 46 45 45 45 45 45 46 46 47 47 47 47 46 46 46 47 46 46 46 47 47 48 48 49 50
38 41 41 41 41 44 41 39 37 34 34 21 34 35 35 42 47 46 46 45 45 44 45 45 46 46 45 45 45 45 46 45 45 45 45 46 46 45 45 46 47 47 48 49
36 37 40 42 38 39 38 36 21 21 17 22 30 31 40 44 47 48 47 45 44 44 44 44 44 44 43 43 43 44 44 43 44 44 44 45 45 45 46 46 47 46 47 48
30 26 37 41 41 37 35 37 27 21 20 26 31 30 39 43 45 48 48 47 44 43 43 44 44 44 44 43 43 44 43 44 43 44 44 45 45 45 46 47 46 46 46 47
29 32 37 39 42 44 36 33 38 26 15 22 29 34 43 41 43 44 45 44 43 43 43 44 43 44 43 43 43 43 43 44 43 44 44 44 44 44 45 46 46 46 46 47
36 29 33 37 41 41 39 42 32 28 19 18 25 29 37 40 41 42 43 43 43 43 43 43 43 43 43 43 43 43 44 44 43 43 43 44 44 44 45 45 45 46 46 47
35 33 29 35 34 34 35 33 36 36 31 24 19 31 39 45 43 43 43 43 43 43 43 43 43 43 44 43 42 43 43 43 42 42 43 43 43 43 44 45 45 46 47 47
37 33 23 29 35 37 36 37 39 33 25 23 26 30 39 41 42 43 43 43 43 43 43 43 43 42 41 42 42 42 42 42 42 42 42 42 43 43 43 44 45 46 46 47
41 32 23 27 32 33 31 35 40 36 33 26 26 37 38 38 40 41 41 41 42 42 41 41 40 40 41 41 42 42 42 42 42 41 41 41 41 42 43 44 44 45 46 46
47 28 36 31 33 34 29 32 37 39 34 35 31 37 37 37 38 39 40 40 40 39 39 39 39 39 40 41 41 41 41 41 41 40 41 40 41 42 43 43 44 44 45 45
41 34 30 26 31 34 35 36 35 34 41 35 39 32 40 40 39 37 40 39 37 35 35 37 36 37 38 38 39 39 40 40 40 40 40 40 41 42 42 42 43 44 44 45
37 26 26 24 25 30 28 36 35 36 39 40 29 30 40 39 38 38 38 37 37 37 35 36 37 36 36 35 38 39 38 39 39 40 40 40 41 41 41 41 42 43 44 45
34 29 26 27 24 30 28 32 34 36 40 41 32 45 40 37 40 41 40 40 40 39 38 37 37 37 36 36 37 37 38 38 38 38 38 39 40 40 40 41 41 42 43 44
36 35 32 24 29 23 36 41 40 39 40 44 45 43 46 43 46 47 44 43 40 39 38 38 37 36 35 35 35 36 36 37 37 37 38 38 38 38 38 38 40 41 42 43
43 37 26 25 25 27 30 34 35 35 39 44 43 47 45 40 41 39 40 42 43 40 38 37 36 35 34 34 35 35 35 35 36 36 37 37 38 37 37 38 39 41 41 42
40 41 33 24 20 23 34 34 40 42 34 46 46 46 37 43 40 42 39 42 38 38 36 35 34 34 34 33 34 34 33 33 33 35 36 36 37 38 38 38 38 38 40 40
31 32 29 25 21 25 35 34 45 30 39 44 47 48 41 45 51 46 43 40 39 38 35 35 35 34 32 33 33 32 31 31 32 34 34 35 36 36 38 37 36 37 38 37
29 29 29 27 22 21 35 36 38 45 38 40 44 47 46 48 40 41 42 37 36 34 34 34 33 31 31 32 33 31 31 31 32 32 33 33 33 34 35 35 35 36 37 36
24 31 27 33 33 36 41 38 41 39 41 39 41 44 47 39 39 41 37 36 35 35 34 33 31 29 30 32 33 30 30 31 32 33 32 33 33 33 33 34 34 35 34 34
28 32 29 32 35 33 39 35 38 38 37 36 38 42 42 38 39 38 37 35 35 33 32 30 29 27 26 29 30 31 32 33 33 33 33 33 33 33 33 33 33 34 34 33
30 31 27 28 30 34 34 35 36 37 34 35 38 41 39 39 37 38 35 35 34 31 28 29 28 25 22 25 27 29 28 32 33 33 33 32 33 33 33 33 33 33 34 34
31 32 29 30 35 37 38 37 38 35 34 36 37 35 38 39 37 36 35 34 32 28 26 26 24 22 20 20 19 22 25 26 28 28 27 29 34 34 33 33 34 38 37 38
MSLP
1016.17 1016.97 1016.97 1016.64 1016.07 1015.82 1015.63 1015.60 1015.33 1014.76 1014.52 1014.65 1014.18 1013.54 1012.64 1011.99 1012.03 1011.95 1011.82 1012.15 1012.45 1012.90 1013.08 1013.35 1013.91 1014.22 1014.80 1015.60 1016.16 1016.81 1017.65 1018.51 1018.87 1019.40 1019.89 1020.21 1020.27 1020.52 1020.49 1020.49 1020.47 1020.53 1020.54 1020.48
1016.94 1016.40 1016.30 1016.61 1016.70 1016.38 1015.99 1015.74 1015.34 1014.77 1014.55 1014.75 1014.19 1013.25 1012.04 1011.50 1011.03 1011.03 1011.39 1011.73 1012.20 1012.81 1013.39 1013.97 1014.19 1014.44 1014.82 1015.50 1016.16 1016.94 1017.60 1018.39 1018.77 1018.92 1019.36 1019.66 1020.02 1020.39 1020.38 1020.30 1020.27 1020.43 1020.56 1020.35
1016.01 1015.49 1015.68 1016.12 1016.57 1016.83 1016.44 1016.10 1015.66 1015.30 1014.90 1014.85 1014.67 1012.98 1011.55 1010.70 1010.65 1010.84 1011.28 1011.74 1012.28 1012.72 1013.35 1014.18 1014.55 1014.71 1015.08 1015.59 1016.04 1016.66 1017.52 1018.31 1018.76 1018.98 1019.29 1019.82 1020.05 1020.39 1020.51 1020.44 1020.34 1020.39 1020.54 1020.59
1016.30 1015.16 1015.79 1016.30 1016.17 1016.52 1016.67 1015.84 1015.80 1015.91 1016.15 1016.03 1015.36 1013.88 1011.81 1010.75 1010.55 1010.70 1011.27 1011.92 1012.43 1012.97 1013.56 1014.18 1014.57 1014.89 1015.03 1015.60 1016.09 1016.68 1017.41 1018.15 1018.69 1019.04 1019.28 1019.53 1019.76 1020.20 1020.23 1020.30 1020.37 1020.48 1020.67 1020.66
1015.07 1015.15 1015.23 1015.65 1015.14 1015.68 1016.08 1015.91 1016.14 1016.46 1016.76 1016.85 1016.05 1015.69 1011.65 1011.04 1010.57 1010.13 1010.91 1011.72 1012.38 1012.93 1013.34 1013.85 1014.39 1014.84 1015.24 1015.80 1016.29 1016.93 1017.58 1018.18 1018.52 1018.99 1019.43 1019.58 1019.76 1020.01 1020.24 1020.34 1020.31 1020.40 1020.55 1020.61
1014.99 1014.76 1014.63 1014.33 1014.73 1014.96 1015.90 1016.49 1017.01 1017.55 1017.95 1017.70 1016.11 1015.41 1012.08 1010.67 1009.59 1009.59 1010.39 1011.39 1012.27 1013.02 1013.57 1014.02 1014.47 1015.02 1015.56 1016.18 1016.67 1017.18 1017.75 1018.23 1018.49 1018.82 1019.34 1019.64 1019.71 1019.97 1020.14 1020.38 1020.38 1020.41 1020.53 1020.71
1014.68 1014.67 1014.34 1014.33 1014.78 1015.48 1015.44 1016.49 1018.13 1018.82 1019.14 1017.68 1016.50 1015.68 1011.14 1009.76 1009.09 1009.41 1010.20 1011.15 1012.12 1013.01 1013.62 1014.09 1014.58 1015.25 1015.89 1016.50 1016.93 1017.27 1017.69 1018.27 1018.54 1018.73 1019.12 1019.51 1019.68 1019.93 1020.18 1020.28 1020.24 1020.46 1020.48 1020.70
1013.62 1014.34 1013.69 1013.58 1013.49 1013.90 1015.11 1015.19 1016.50 1017.65 1018.82 1017.59 1016.74 1014.24 1010.50 1009.34 1009.03 1009.24 1009.84 1010.83 1012.08 1013.04 1013.66 1014.08 1014.44 1015.00 1015.67 1016.30 1016.94 1017.35 1017.74 1018.17 1018.64 1018.74 1018.99 1019.39 1019.60 1019.81 1020.03 1020.21 1020.22 1020.34 1020.39 1020.57
1012.13 1012.99 1012.68 1012.86 1012.62 1012.88 1014.72 1014.77 1014.64 1016.13 1018.66 1017.72 1015.37 1012.83 1010.23 1009.25 1009.33 1009.63 1010.21 1011.07 1011.89 1012.65 1013.35 1013.93 1014.56 1014.89 1015.43 1016.03 1016.62 1017.11 1017.62 1018.02 1018.49 1018.63 1018.91 1019.23 1019.48 1019.63 1019.91 1020.08 1020.30 1020.43 1020.35 1020.49
1010.43 1012.33 1013.20 1013.15 1013.18 1013.01 1012.64 1013.10 1014.38 1015.44 1016.81 1016.61 1014.45 1013.09 1010.53 1009.46 1009.05 1009.78 1010.39 1011.00 1011.78 1012.34 1013.06 1013.74 1014.38 1014.76 1015.21 1015.69 1016.31 1016.93 1017.34 1017.67 1018.10 1018.42 1018.66 1018.88 1019.19 1019.43 1019.76 1020.03 1020.22 1020.29 1020.24 1020.34
1009.77 1010.58 1013.61 1013.59 1013.15 1012.62 1013.04 1012.83 1012.97 1013.44 1014.11 1014.27 1014.04 1011.21 1008.92 1008.46 1008.55 1009.18 1009.96 1010.57 1011.37 1012.03 1012.71 1013.32 1014.04 1014.52 1014.98 1015.54 1016.12 1016.65 1017.16 1017.53 1017.87 1018.17 1018.43 1018.71 1019.09 1019.42 1019.58 1019.77 1020.08 1020.09 1020.05 1020.07
1009.02 1010.35 1012.57 1012.77 1012.97 1012.65 1012.13 1011.70 1011.58 1012.11 1013.03 1013.33 1012.80 1010.05 1008.50 1008.84 1008.89 1009.11 1009.85 1010.63 1011.24 1011.84 1012.38 1013.03 1013.73 1014.31 1014.91 1015.43 1015.95 1016.44 1016.96 1017.28 1017.59 1017.91 1018.29 1018.53 1018.84 1019.34 1019.57 1019.56 1019.77 1019.79 1019.88 1019.81
1007.47 1009.07 1011.83 1012.88 1013.07 1012.90 1011.84 1010.94 1010.95 1011.07 1011.33 1011.56 1011.65 1008.83 1008.54 1008.91 1009.15 1009.41 1009.88 1010.75 1011.30 1011.93 1012.56 1013.10 1013.72 1014.17 1014.58 1014.99 1015.57 1016.08 1016.60 1016.89 1017.34 1017.86 1018.22 1018.53 1018.74 1019.05 1019.44 1019.54 1019.54 1019.59 1019.74 1019.72
1006.56 1007.70 1007.91 1008.27 1008.48 1009.64 1011.26 1010.26 1010.27 1009.98 1010.32 1009.68 1009.53 1008.40 1008.71 1009.00 1009.43 1009.80 1010.20 1010.79 1011.46 1012.12 1012.59 1013.07 1013.62 1013.96 1014.22 1014.66 1015.14 1015.66 1016.20 1016.59 1017.09 1017.58 1017.92 1018.18 1018.42 1018.69 1019.00 1019.42 1019.47 1019.51 1019.73 1019.77
1006.27 1007.09 1007.81 1008.18 1008.30 1008.42 1008.45 1009.02 1009.67 1009.72 1008.54 1009.18 1007.38 1008.31 1008.54 1008.57 1008.79 1009.56 1010.20 1011.07 1011.85 1012.33 1012.70 1013.06 1013.49 1014.01 1014.27 1014.68 1015.05 1015.33 1015.71 1016.17 1016.73 1017.24 1017.53 1017.69 1017.95 1018.43 1018.80 1019.12 1019.22 1019.26 1019.42 1019.59
1005.74 1006.31 1007.11 1008.39 1008.12 1008.19 1008.33 1008.15 1008.41 1007.81 1007.42 1007.73 1007.32 1007.36 1007.50 1007.96 1008.46 1009.64 1010.11 1010.88 1011.56 1012.09 1012.51 1012.89 1013.33 1013.88 1014.28 1014.51 1014.77 1015.01 1015.37 1015.74 1016.25 1016.68 1016.86 1017.30 1017.71 1018.15 1018.59 1018.79 1018.95 1019.18 1019.36 1019.50
1005.25 1005.98 1007.15 1007.90 1008.12 1008.41 1008.35 1006.27 1006.88 1006.91 1007.00 1006.05 1006.84 1002.74 1006.22 1007.48 1007.67 1008.12 1009.05 1009.87 1010.64 1011.64 1012.18 1012.66 1013.17 1013.63 1014.13 1014.43 1014.73 1015.15 1015.34 1015.60 1016.01 1016.43 1016.67 1017.16 1017.58 1018.06 1018.37 1018.58 1018.80 1018.95 1019.16 1019.37
1003.58 1005.10 1006.24 1007.47 1007.92 1007.23 1004.57 1004.22 1004.78 1005.23 1004.70 1004.94 1004.13 1004.05 1004.81 1005.61 1006.15 1006.50 1007.67 1008.84 1009.94 1011.27 1012.01 1012.74 1013.32 1013.82 1014.35 1014.62 1014.90 1015.16 1015.48 1015.64 1015.94 1016.24 1016.59 1017.15 1017.69 1018.17 1018.49 1018.76 1018.92 1019.01 1019.10 1019.22
1001.82 1003.37 1005.21 1005.88 1006.27 1005.46 1004.61 1004.10 1003.80 1003.92 1003.01 1003.04 1002.44 1003.05 1003.98 1005.08 1006.25 1006.77 1007.25 1008.30 1009.11 1010.37 1011.52 1012.70 1013.33 1013.91 1014.48 1014.63 1014.79 1015.12 1015.46 1015.77 1015.93 1016.30 1016.62 1017.12 1017.46 1017.96 1018.35 1018.60 1018.62 1018.81 1019.11 1019.23
1001.61 1001.98 1003.21 1004.58 1004.84 1004.17 1002.26 1002.38 1002.32 1003.36 1002.49 999.76 1000.57 1001.61 1003.34 1004.55 1005.52 1005.11 1006.66 1007.91 1009.24 1010.30 1011.40 1012.67 1013.53 1014.17 1014.52 1014.87 1014.94 1015.22 1015.69 1016.02 1016.35 1016.60 1016.89 1017.06 1017.33 1017.73 1018.14 1018.32 1018.45 1018.53 1018.87 1019.12
1001.14 1001.84 1002.12 1003.06 1003.67 1002.90 1001.15 1001.54 1001.97 1002.47 998.83 997.84 998.54 1000.18 1002.08 1002.02 1001.25 1003.78 1005.89 1007.88 1009.25 1010.33 1011.62 1012.88 1013.68 1014.31 1014.85 1015.06 1015.20 1015.68 1016.33 1016.68 1016.89 1016.96 1017.14 1017.28 1017.55 1017.85 1017.99 1018.22 1018.51 1018.75 1018.94 1019.20
1000.62 1000.75 1001.24 1002.34 1002.67 1001.82 1000.19 1001.37 1000.29 998.06 997.81 998.00 998.37 999.18 999.69 1000.22 1002.01 1003.69 1005.67 1007.44 1009.14 1010.70 1012.20 1013.24 1013.89 1014.55 1015.24 1015.52 1015.53 1016.29 1016.72 1017.11 1017.20 1017.38 1017.64 1017.85 1018.14 1018.25 1018.30 1018.44 1018.70 1018.88 1019.07 1019.17
1001.05 1000.02 1000.11 999.74 999.13 998.72 998.53 997.83 997.71 998.10 998.41 998.53 998.60 999.04 1000.18 1001.61 1002.67 1004.10 1006.15 1007.91 1009.20 1010.80 1012.24 1013.42 1014.01 1015.16 1015.94 1016.15 1016.44 1016.82 1017.34 1017.35 1017.51 1017.76 1017.95 1018.20 1018.42 1018.56 1018.61 1018.77 1019.02 1019.24 1019.20 1019.27
1000.21 999.96 1000.54 999.38 998.55 998.27 998.26 998.13 997.81 998.46 998.88 998.96 998.99 999.41 1000.67 1001.86 1003.37 1005.06 1006.78 1008.66 1010.09 1011.51 1012.68 1013.75 1014.69 1015.81 1016.56 1017.00 1017.15 1017.20 1017.42 1017.53 1017.73 1018.06 1018.34 1018.55 1018.60 1018.78 1018.79 1018.82 1019.03 1019.29 1019.28 1019.27
1000.15 1000.20 1000.53 999.19 998.24 998.31 998.56 998.49 998.33 998.74 999.45 999.57 999.74 999.97 1001.11 1002.28 1004.22 1005.15 1007.07 1009.04 1010.73 1012.04 1013.44 1014.37 1015.25 1016.25 1017.34 1017.76 1017.90 1018.03 1018.23 1018.10 1018.21 1018.42 1018.63 1018.78 1018.89 1019.07 1019.30 1019.35 1019.39 1019.44 1019.40 1019.32
999.99 1000.26 1000.51 998.91 997.90 997.66 997.50 997.30 998.44 999.39 999.92 1000.10 1000.08 1001.32 1001.89 1002.31 1003.89 1006.05 1008.19 1009.66 1010.87 1012.36 1013.79 1015.02 1015.99 1016.79 1018.00 1018.45 1018.82 1019.02 1018.92 1018.71 1018.67 1018.92 1019.13 1019.09 1019.15 1019.33 1019.39 1019.41 1019.60 1019.50 1019.47 1019.28
Wind_Speed
3 5 8 12 9 2 4 4 3 3 2 3 7 11 16 10 6 10 10 8 9 8 3 2 4 6 9 8 11 12 12 9 8 4 3 2 2 1 1 0 1 3 3 4
4 9 9 4 4 3 1 3 4 4 1 3 5 13 14 9 8 7 7 7 7 5 4 3 5 5 8 11 11 11 10 10 6 3 2 2 2 1 1 1 1 2 3 3
8 4 9 8 6 5 3 5 3 4 3 1 6 9 6 3 3 3 3 3 2 7 8 5 6 6 8 11 12 12 11 9 6 5 5 3 3 2 1 1 0 1 2 3
7 5 7 6 6 8 6 9 7 4 2 5 2 7 6 3 6 5 5 4 5 5 5 5 6 7 9 8 8 10 10 9 6 6 3 4 3 3 2 1 1 1 2 3
9 10 8 6 8 9 6 3 7 2 1 4 1 2 9 1 7 8 8 7 6 7 8 9 8 7 6 8 8 8 8 7 6 5 4 3 3 2 2 1 2 1 2 2
4 1 4 7 4 12 9 6 7 4 3 3 7 8 6 6 9 3 5 7 8 7 7 6 5 7 6 5 6 7 8 6 6 6 5 5 5 4 3 2 1 1 1 1
3 5 3 4 7 3 3 7 3 4 3 8 4 2 8 7 5 4 8 9 8 7 7 8 9 8 7 8 7 7 8 6 6 6 5 5 5 5 4 3 2 2 1 1
11 6 12 6 7 11 8 8 8 9 6 3 2 10 9 5 6 3 6 8 7 7 6 8 9 9 9 8 8 7 8 6 6 6 5 4 5 3 3 3 2 2 1 1
10 8 3 2 6 12 7 8 6 8 2 3 6 8 11 6 5 5 6 7 9 9 8 8 7 8 8 8 9 9 8 6 6 6 5 5 5 5 4 4 2 1 1 1
9 4 2 1 1 4 6 9 4 2 4 5 5 6 7 5 10 7 8 8 7 7 7 7 7 8 6 6 6 7 7 8 6 6 5 5 5 5 4 3 4 3 1 1
6 5 1 4 7 11 5 4 2 5 6 7 2 8 9 11 8 14 10 9 9 8 8 8 7 6 7 6 7 7 7 7 6 6 5 5 5 4 4 4 3 3 2 2
6 6 5 7 3 2 2 3 7 6 7 2 4 10 1 5 5 8 9 7 6 6 8 7 7 7 7 7 7 8 7 7 7 6 5 6 5 5 4 4 5 4 3 2
16 6 6 3 3 3 7 10 10 3 3 10 8 13 1 3 4 6 9 8 7 7 7 7 7 8 8 7 7 8 7 7 6 6 6 5 5 5 5 5 5 4 4 3
19 3 17 18 9 10 10 10 9 10 11 11 10 10 4 5 7 6 7 7 7 7 8 6 6 7 7 7 7 7 6 6 6 6 6 7 6 6 5 5 5 4 4 3
13 16 11 4 4 5 9 20 18 15 23 15 18 11 7 10 12 7 7 6 7 6 7 7 7 6 6 6 6 5 5 6 6 7 7 7 6 5 5 5 5 5 5 4
7 4 5 7 3 5 3 11 19 25 21 21 5 8 8 2 8 7 8 9 8 8 8 7 7 7 7 6 6 6 6 7 7 8 8 6 6 6 6 6 6 5 4 4
11 7 4 11 7 8 3 19 20 15 18 24 10 31 9 7 10 15 15 15 12 8 9 9 8 7 6 6 5 5 5 5 6 6 5 6 6 6 5 5 5 5 5 4
19 15 4 4 10 11 11 13 19 24 17 24 27 7 16 10 14 9 7 14 11 10 8 6 6 5 4 4 4 3 4 4 5 5 6 5 6 5 5 4 4 3 4 5
20 14 5 7 10 2 2 8 14 17 22 23 31 24 8 4 5 5 8 8 12 10 8 6 5 4 5 5 5 6 5 5 5 5 5 6 6 6 6 6 6 4 3 3
20 18 11 5 6 15 10 7 11 9 15 20 29 24 13 15 14 10 13 12 10 11 9 9 7 5 5 4 6 8 6 6 6 5 5 6 6 6 6 5 5 3 2 2
18 17 18 10 4 8 7 10 18 10 16 11 24 23 20 20 16 10 16 11 12 12 13 10 8 7 5 5 7 9 7 7 3 4 5 5 4 5 5 5 4 3 3 2
12 16 12 7 6 8 11 13 21 10 3 2 11 19 27 17 12 19 19 19 19 17 13 10 11 8 6 6 9 10 9 4 4 7 7 6 5 3 3 4 3 3 4 3
6 4 5 12 10 3 25 6 8 3 2 4 7 7 13 13 10 21 20 19 18 17 13 10 12 11 7 7 7 10 4 5 6 8 7 6 5 4 3 4 3 2 1 2
5 3 3 4 7 7 20 2 4 4 2 2 3 11 16 12 20 18 17 17 15 13 13 11 12 11 9 7 8 7 6 5 7 9 8 7 5 4 4 2 2 1 1 1
3 4 2 6 3 4 4 7 3 5 3 5 6 12 16 21 17 21 19 18 14 13 10 9 11 11 9 6 7 6 4 5 9 8 7 6 5 5 4 3 1 1 1 1
4 3 3 4 2 4 6 9 8 9 9 10 14 11 15 21 22 20 16 13 16 15 12 11 10 12 8 7 7 5 5 4 5 7 4 3 5 4 3 3 3 4 2 4
Wind_Direction
184 153 203 212 207 113 140 188 242 237 254 237 233 270 273 279 248 261 257 239 237 238 234 123 132 129 127 141 144 149 143 146 142 138 134 140 167 168 145 193 72 53 33 22
95 235 198 162 190 201 149 170 238 271 214 202 319 281 260 245 245 214 246 248 244 177 161 142 134 135 150 152 148 145 147 154 159 136 140 136 148 155 158 191 130 63 35 24
170 200 178 153 160 194 241 212 239 233 336 219 325 286 286 269 239 213 229 248 229 184 166 164 152 148 140 152 156 153 151 155 154 137 121 101 94 86 156 203 143 83 43 9
251 194 134 166 183 146 233 205 211 229 62 242 3 283 293 259 269 225 215 194 189 167 144 158 161 155 159 153 137 139 143 149 156 156 144 149 150 153 192 171 131 69 50 11
234 176 157 176 194 163 221 138 178 155 199 356 257 292 268 300 272 232 210 199 187 185 172 170 169 156 142 143 146 139 139 148 152 157 158 146 144 132 134 170 146 92 61 13
244 275 187 195 143 167 155 86 58 64 88 295 199 186 258 196 214 208 184 188 185 181 173 158 142 134 135 129 134 142 149 154 159 157 160 163 157 156 149 183 154 118 85 353
159 211 205 166 93 64 125 114 2 357 11 227 343 275 260 260 229 218 194 189 189 179 169 161 157 160 153 160 158 153 154 161 167 159 160 172 161 166 169 180 167 156 96 72
179 252 168 182 181 169 187 165 162 194 200 233 61 231 246 238 242 193 170 171 166 181 182 179 176 168 167 166 166 161 163 155 171 165 170 168 161 166 171 186 172 173 152 149
168 236 20 273 159 142 196 211 156 106 53 53 215 284 288 220 231 200 165 158 178 184 187 187 175 176 173 170 175 173 167 163 175 176 163 175 168 169 176 183 178 169 166 149
193 113 353 141 348 356 165 158 98 9 152 248 267 279 249 252 223 199 200 196 188 179 178 185 185 182 178 170 165 168 171 172 178 172 179 180 174 174 166 163 195 188 181 138
147 120 353 126 213 175 152 183 174 134 160 179 225 256 217 224 199 197 199 191 183 180 180 183 186 184 175 157 167 176 174 171 176 181 179 176 169 171 167 172 194 199 179 172
184 112 148 189 271 307 16 186 175 170 218 248 143 262 298 269 265 185 182 177 178 176 179 178 177 169 170 176 169 180 180 183 187 182 176 179 161 165 181 181 192 195 202 174
177 184 113 69 341 232 209 192 182 107 83 196 155 250 8 304 242 208 160 167 168 162 161 163 161 176 180 178 177 182 188 191 179 175 172 171 176 171 192 197 191 184 195 200
167 136 201 197 189 133 200 196 205 203 212 211 224 238 252 221 214 199 178 166 161 167 167 167 169 181 179 181 179 181 194 188 173 176 178 178 185 186 183 196 189 182 194 203
172 210 201 214 136 167 189 194 190 200 217 205 237 219 220 215 210 196 169 157 157 170 169 171 167 172 171 171 177 177 184 179 172 176 183 190 183 185 176 184 188 179 185 203
184 234 125 215 86 93 114 191 196 209 221 230 166 267 225 138 119 171 195 174 184 189 182 173 167 165 175 178 180 172 184 184 174 183 193 174 171 178 186 181 180 175 186 194
176 137 141 220 129 89 287 208 190 210 216 221 210 229 160 194 191 187 195 191 184 184 177 177 178 173 175 178 170 183 179 161 178 181 169 174 171 181 190 179 168 176 178 179
184 180 162 143 132 210 238 166 187 203 214 220 241 190 207 192 210 201 180 178 170 176 169 170 160 141 152 150 162 153 168 166 169 167 161 165 167 173 171 167 180 170 171 186
184 170 141 162 195 312 181 198 178 179 238 219 228 229 221 136 85 231 170 178 170 160 144 148 141 135 141 137 138 128 112 124 127 147 156 165 161 159 163 175 178 177 180 184
187 193 182 163 159 205 228 171 145 96 271 212 215 218 165 144 207 207 171 157 138 129 132 137 130 123 120 129 127 112 103 101 100 120 141 148 154 160 174 177 170 155 149 177
187 189 197 190 187 267 217 148 139 140 246 186 197 199 173 194 208 147 150 130 134 134 133 131 123 120 121 118 111 94 92 85 70 103 103 103 119 143 154 146 151 147 158 173
201 188 188 157 157 246 163 146 173 214 39 174 191 196 193 190 124 144 150 140 139 135 133 132 121 103 80 85 100 98 89 82 83 92 86 72 62 58 89 121 107 143 165 162
233 253 192 193 187 176 176 195 180 117 169 218 183 180 176 139 143 149 144 143 141 140 136 130 119 105 81 73 93 103 89 102 100 98 87 86 86 83 83 112 128 158 139 136
239 112 260 121 204 195 199 251 170 134 232 170 161 138 145 136 141 136 134 135 134 135 134 129 122 114 100 78 80 82 99 108 108 102 100 98 90 78 58 73 78 127 151 143
118 101 226 258 46 80 202 224 166 121 133 120 117 139 142 135 141 140 136 134 135 126 121 121 121 114 111 97 84 80 64 113 106 101 97 90 84 86 79 65 41 9 291 153
137 239 256 255 183 149 204 189 178 162 174 162 137 129 145 144 138 133 128 130 135 131 126 117 111 112 110 100 84 49 32 72 103 97 87 85 96 96 98 89 69 65 43 348